EW5212 Weather Reports


time (UTC)temp
F
wind
direction
speed
knots
gust
knots
rain 1hr
in
rain 24hr
in
rain mn
in
humidity
%
barometer
mb
20260508145016 66 0.0 0.9 0.00 0.08 0.00 44 1018.3
20260508144016 66 0.0 0.9 0.00 0.08 0.00 50 1018.2
20260508143016 65 0.0 1.7 0.00 0.08 0.00 57 1018.2
20260508142015 64 0.0 0.9 0.00 0.08 0.00 57 1018.2
20260508141016 63 0.0 0.9 0.00 0.08 0.00 59 1018.1
20260508140016 61 0.0 1.7 0.00 0.08 0.00 64 1018.1
20260508135015 60 68 0.9 1.7 0.00 0.08 0.00 67 1018.1
20260508134016 59 0.0 2.6 0.00 0.08 0.00 76 1018.3
20260508133036 57 0.0 0.0 0.00 0.08 0.00 86 1018.3
20260508132015 55 0.0 0.9 0.00 0.08 0.00 99 1018.2
20260508131055 54 0.0 0.0 0.00 0.08 0.00 99 1018.2
20260508130016 52 0.0 0.0 0.00 0.08 0.00 99 1018.2
20260508125035 49 0.0 0.0 0.00 0.08 0.00 99 1018.1
20260508124016 47 0.0 0.0 0.00 0.08 0.00 99 1018.2
20260508123016 46 0.0 0.9 0.00 0.08 0.00 99 1018.2
20260508122035 45 0.0 0.0 0.00 0.08 0.00 99 1018.1
20260508121015 44 0.0 0.0 0.00 0.08 0.00 99 1017.7
20260508120015 43 0.0 0.0 0.00 0.08 0.00 98 1017.6
20260508115036 41 0.0 0.0 0.00 0.08 0.00 98 1017.4
20260508114016 40 0.0 0.0 0.00 0.08 0.00 98 1017.3
20260508113116 39 0.0 0.0 0.00 0.08 0.00 97 1017.3
20260508112015 39 0.0 0.0 0.00 0.08 0.00 97 1017.1
20260508111036 39 0.0 0.0 0.00 0.08 0.00 97 1016.9
20260508110016 39 0.0 0.0 0.00 0.08 0.00 97 1016.7
20260508105015 39 0.0 0.0 0.00 0.08 0.00 97 1016.6
20260508104015 39 0.0 0.0 0.00 0.08 0.00 97 1016.3
20260508103015 40 0.0 0.0 0.00 0.08 0.00 97 1016.2
20260508102015 40 0.0 0.0 0.00 0.08 0.00 97 1016.2
20260508101015 40 0.0 0.0 0.00 0.08 0.00 97 1016.1
20260508100015 40 0.0 0.0 0.00 0.08 0.00 97 1016.0
20260508095015 41 0.0 0.0 0.00 0.08 0.00 97 1015.8
20260508094035 41 0.0 0.0 0.00 0.08 0.00 97 1015.8
20260508093015 41 0.0 0.0 0.00 0.08 0.00 97 1015.7
20260508092015 41 0.0 0.0 0.00 0.08 0.00 97 1015.5
20260508091016 41 0.0 0.0 0.00 0.08 0.00 98 1015.4
20260508090015 41 0.0 0.0 0.00 0.08 0.00 98 1015.4
20260508085055 40 0.0 0.0 0.00 0.08 0.00 98 1015.2
20260508084015 40 0.0 0.0 0.00 0.09 0.00 97 1015.1
20260508083015 39 0.0 0.0 0.00 0.09 0.00 97 1015.0
20260508082015 39 0.0 0.0 0.00 0.09 0.00 97 1014.9
20260508081015 39 0.0 0.0 0.00 0.09 0.00 96 1014.8
20260508080016 40 0.0 0.0 0.00 0.09 0.00 96 1014.7
20260508075015 40 0.0 0.0 0.00 0.09 0.00 97 1014.6
20260508074035 40 0.0 0.0 0.00 0.09 0.00 97 1014.5
20260508073035 40 0.0 0.0 0.00 0.09 0.00 97 1014.4
20260508072015 41 0.0 0.0 0.00 0.09 0.00 96 1014.3
20260508071055 41 0.0 0.0 0.00 0.09 0.00 96 1014.1
20260508070016 41 0.0 0.0 0.00 0.09 0.00 96 1014.1
20260508065016 41 0.0 0.0 0.00 0.09 0.00 96 1014.2
20260508064015 42 0.0 0.0 0.00 0.09 0.00 96 1014.1
20260508063015 42 0.0 0.0 0.00 0.09 0.00 96 1014.0
20260508062015 42 0.0 0.0 0.00 0.09 0.00 96 1014.0
20260508061015 43 0.0 0.0 0.00 0.09 0.00 96 1013.8
20260508060055 43 0.0 0.0 0.00 0.09 0.00 96 1013.7
20260508055015 43 0.0 0.0 0.00 0.09 0.00 96 1013.7
20260508054016 44 0.0 0.0 0.00 0.09 0.00 96 1013.6
20260508053015 44 0.0 0.0 0.00 0.09 0.00 96 1013.6
20260508052017 44 0.0 0.0 0.00 0.09 0.00 96 1013.7
20260508051017 45 0.0 0.0 0.00 0.09 0.00 96 1013.7
20260508050037 45 0.0 0.0 0.00 0.09 0.00 96 1013.7
20260508045017 45 0.0 0.0 0.00 0.09 0.00 96 1013.5
20260508044018 46 0.0 0.0 0.00 0.09 0.00 96 1013.4
20260508043017 46 0.0 0.0 0.00 0.09 0.00 96 1013.3
20260508042017 46 0.0 0.0 0.00 0.09 0.00 96 1013.4
20260508041017 46 0.0 0.0 0.00 0.09 0.00 96 1013.3
20260508040017 47 0.0 0.0 0.00 0.09 0.00 96 1013.2
20260508035036 47 0.0 0.0 0.00 0.09 0.09 96 1013.1
20260508034017 47 0.0 0.0 0.00 0.09 0.09 96 1013.2
20260508033016 47 0.0 0.0 0.00 0.09 0.09 96 1013.2
20260508032016 48 0.0 0.0 0.00 0.09 0.09 96 1013.1
20260508031016 47 0.0 0.0 0.00 0.09 0.09 96 1013.0
20260508030019 47 0.0 0.0 0.00 0.09 0.09 96 1013.0
20260508025017 48 0.0 0.0 0.00 0.09 0.09 96 1012.8
20260508024016 47 0.0 0.0 0.00 0.09 0.09 96 1012.8
20260508023016 48 0.0 0.0 0.00 0.09 0.09 95 1012.8
20260508022017 48 0.0 0.0 0.00 0.09 0.09 95 1012.7
20260508021016 48 0.0 0.0 0.00 0.09 0.09 95 1012.8
20260508020017 48 0.0 0.0 0.00 0.09 0.09 94 1012.5
20260508015037 49 0.0 0.0 0.00 0.09 0.09 94 1012.4
20260508014037 49 0.0 0.0 0.00 0.09 0.09 94 1012.2
20260508013016 50 0.0 0.0 0.00 0.09 0.09 93 1012.3
20260508012016 50 0.0 0.0 0.00 0.09 0.09 93 1012.4
20260508011016 51 0.0 0.0 0.00 0.09 0.09 93 1012.4
20260508010016 52 0.0 0.0 0.00 0.09 0.09 93 1012.3
20260508005016 52 0.0 0.0 0.00 0.09 0.09 93 1012.2
20260508004016 52 0.0 0.0 0.00 0.09 0.09 92 1012.0
20260508003016 52 0.0 0.0 0.00 0.09 0.09 92 1012.2
20260508002016 53 0.0 0.0 0.00 0.09 0.09 92 1012.1
20260508001037 53 0.0 0.0 0.00 0.09 0.09 92 1011.9
20260508000016 53 0.0 0.0 0.00 0.09 0.09 92 1011.6
20260507235016 53 0.0 0.0 0.00 0.09 0.09 91 1011.5
20260507234016 54 0.0 0.0 0.00 0.09 0.09 90 1011.4
20260507233056 54 0.0 0.9 0.00 0.09 0.09 89 1011.5
20260507232016 54 0.0 0.9 0.00 0.09 0.09 87 1011.2
20260507231036 54 0.0 0.9 0.00 0.09 0.09 87 1011.0
20260507230016 54 0.0 0.0 0.00 0.09 0.09 88 1011.0
20260507225016 54 0.0 0.9 0.00 0.09 0.09 90 1011.1
20260507224016 54 0.0 0.9 0.00 0.09 0.09 89 1011.1
20260507223036 54 113 0.9 2.6 0.00 0.09 0.09 89 1011.0
20260507222016 54 0.0 0.9 0.00 0.09 0.09 90 1011.1
20260507221016 54 0.0 0.9 0.00 0.09 0.09 91 1011.0
20260507220016 54 0.0 0.9 0.00 0.09 0.09 91 1010.9
20260507215016 54 0.0 0.9 0.00 0.09 0.09 91 1010.9
20260507214016 54 90 0.9 1.7 0.00 0.09 0.09 91 1011.1
20260507213016 54 0.0 1.7 0.01 0.09 0.09 92 1010.9
20260507212016 54 90 0.9 1.7 0.02 0.09 0.09 91 1010.8
20260507211036 54 0.0 3.5 0.02 0.09 0.09 92 1010.8
20260507210016 54 0.0 1.7 0.03 0.09 0.09 92 1010.7
20260507205017 54 0.0 0.0 0.06 0.09 0.09 92 1010.9
20260507204016 54 0.0 0.0 0.06 0.09 0.09 92 1011.1
20260507203016 54 0.0 0.0 0.05 0.08 0.08 91 1011.3
20260507202156 55 0.0 0.0 0.05 0.07 0.07 90 1011.1
20260507201016 55 0.0 0.0 0.05 0.07 0.07 89 1011.1
20260507200016 55 0.0 0.9 0.04 0.06 0.06 88 1011.4
20260507195017 55 0.0 0.0 0.01 0.03 0.03 87 1011.3
20260507194016 56 0.0 0.0 0.01 0.03 0.03 84 1011.5
20260507193016 57 0.0 0.0 0.01 0.03 0.03 83 1011.3
20260507192016 57 0.0 0.0 0.00 0.02 0.02 82 1011.8
20260507191017 57 0.0 0.0 0.00 0.02 0.02 81 1011.8
20260507190016 57 0.0 0.0 0.00 0.02 0.02 82 1011.7
20260507185036 57 0.0 0.9 0.00 0.02 0.02 81 1011.6
20260507184016 57 0.0 0.0 0.00 0.02 0.02 80 1011.6
20260507183016 57 0.0 0.0 0.00 0.02 0.02 80 1011.9
20260507182016 58 0.0 0.0 0.00 0.02 0.02 81 1011.9
20260507181017 57 0.0 1.7 0.00 0.02 0.02 82 1011.8
20260507180016 57 0.0 0.9 0.00 0.02 0.02 83 1011.9
20260507175016 57 0.0 0.9 0.00 0.02 0.02 82 1012.0
20260507174016 56 0.0 1.7 0.00 0.02 0.02 83 1012.0
20260507173016 56 0.0 0.0 0.00 0.02 0.02 83 1012.3
20260507172016 56 0.0 0.0 0.00 0.02 0.02 84 1012.2
20260507171016 56 0.0 0.9 0.00 0.02 0.02 85 1012.4
20260507170016 56 0.0 1.7 0.00 0.02 0.02 85 1012.5
20260507165016 55 0.0 0.9 0.00 0.02 0.02 86 1012.6
20260507164036 55 0.0 0.9 0.00 0.02 0.02 89 1012.7
20260507163037 55 0.0 0.0 0.01 0.02 0.02 91 1012.7
20260507162017 55 0.0 0.0 0.01 0.02 0.02 91 1012.7
20260507161016 55 0.0 0.9 0.01 0.03 0.02 91 1013.0
20260507160016 55 0.0 0.0 0.01 0.03 0.02 93 1013.0
20260507155016 55 0.0 0.0 0.01 0.04 0.02 92 1013.1
20260507154016 55 0.0 0.0 0.01 0.04 0.02 91 1013.1
20260507153036 55 0.0 0.0 0.00 0.03 0.01 89 1013.1
20260507152016 56 0.0 0.0 0.00 0.03 0.01 88 1013.0
20260507151016 56 0.0 0.0 0.00 0.03 0.01 87 1012.9
20260507150016 56 0.0 0.0 0.00 0.03 0.01 86 1013.0